Вернуться в каталог

SL-14 DEB

LostLEO
NORAD 11177·DEBRIS·🇷🇺 Russia

Запущен Oct 26, 1978 с Plesetsk Cosmodrome

Loading…

Ближайшие Пролёты (ближайшие 24 часа)

TLE

УстаревшееSource: Space-Track

Эпоха: Dec 15, 1988, 16:39 UTC

1 11177U 78100  E 88350.69388737  .00000019 +00000-0 +00000-4 0  9992
2 11177 074.0159 107.4056 0031315 182.7466 177.3419 12.53967521539814

Отслеживайте SL-14 DEB в реальном времени с AllMySat

Download on the App Store